CST,Max TemperatureF,Mean TemperatureF,Min TemperatureF,Max Dew PointF,MeanDew PointF,Min DewpointF,Max Humidity, Mean Humidity, Min Humidity, Max Sea Level PressureIn, Mean Sea Level PressureIn, Min Sea Level PressureIn, Max VisibilityMiles, Mean VisibilityMiles, Min VisibilityMiles, Max Wind SpeedMPH, Mean Wind SpeedMPH, Max Gust SpeedMPH,PrecipitationIn, CloudCover, Events, WindDirDegrees
2013-2-1,57,48,39,34,28,25,71,51,35,30.45,30.35,30.27,10,10,10,10,5,,0.00,0,,87
2013-2-2,69,53,37,49,41,29,86,63,43,30.29,30.23,30.17,10,10,10,15,7,21,0.00,1,,226
2013-2-3,68,52,37,38,33,27,89,53,23,30.31,30.22,30.07,10,10,10,9,2,,0.00,0,,340
2013-2-4,59,52,46,55,49,35,100,84,57,30.07,29.95,29.87,10,9,7,14,4,,0.00,6,Rain-Thunderstorm,145
2013-2-5,63,54,46,56,53,46,100,95,78,30.05,30.00,29.92,9,4,0,6,1,,0.00,6,Fog,130
2013-2-6,59,54,48,57,53,48,100,94,82,30.12,30.04,29.97,9,5,0,10,3,,0.04,8,Fog-Rain,101
2013-2-7,63,58,52,57,55,52,100,93,78,29.98,29.94,29.89,10,6,0,10,2,,0.00,7,Fog,161
2013-2-8,63,54,45,56,48,38,94,79,45,30.21,30.12,29.95,10,9,3,13,7,22,0.01,6,Rain,360
2013-2-9,55,46,37,51,42,36,93,83,74,30.23,30.11,29.91,10,9,5,9,6,,0.00,6,,92
2013-2-10,69,62,55,63,53,32,100,77,29,30.00,29.85,29.78,10,7,1,15,10,23,1.83,6,Rain,239
2013-2-11,57,52,48,48,43,37,93,70,47,30.17,30.11,30.03,10,10,9,10,5,18,0.14,6,Rain,73
2013-2-12,48,47,46,47,46,44,100,94,89,30.06,29.91,29.84,10,9,2,14,7,29,0.21,7,Rain-Thunderstorm,46
2013-2-13,48,42,37,45,39,34,93,81,66,30.13,30.02,29.91,10,10,10,15,9,22,0.00,6,,302
2013-2-14,64,47,30,39,33,28,100,69,28,30.15,30.10,30.05,10,8,2,7,2,,0.00,0,,187
2013-2-15,55,47,39,44,34,20,89,66,39,30.33,30.23,30.11,10,10,10,12,4,20,0.02,3,Rain,331
2013-2-16,51,42,32,28,22,16,75,49,25,30.39,30.32,30.25,10,10,10,15,6,24,0.00,1,,319
2013-2-17,66,51,36,43,34,26,70,53,30,30.24,30.15,30.04,10,10,10,17,8,25,0.00,0,,174
2013-2-18,68,60,51,61,51,38,94,76,51,30.07,29.91,29.79,10,10,7,28,14,40,0.06,5,Rain-Thunderstorm,185
2013-2-19,60,50,41,38,31,24,73,52,25,30.32,30.23,30.09,10,10,10,9,4,,0.00,0,,16
2013-2-20,48,46,43,33,30,28,65,54,44,30.23,30.14,29.98,10,10,9,14,8,22,0.01,7,Rain,84
2013-2-21,63,52,42,60,44,29,100,82,51,29.95,29.80,29.64,10,9,1,15,10,22,0.10,7,Rain-Thunderstorm,75
2013-2-22,52,46,39,43,41,39,100,89,69,30.10,30.03,29.93,10,6,0,12,5,16,0.00,7,Fog,3
2013-2-23,57,46,35,40,36,32,93,72,44,30.07,30.01,29.95,10,10,9,8,4,,0.00,0,,17
2013-2-24,66,50,33,39,36,33,100,62,33,30.01,29.91,29.75,10,10,6,14,4,18,0.00,1,,95
2013-2-25,64,56,46,61,47,30,100,71,36,29.72,29.54,29.38,10,9,1,25,7,34,0.13,6,Rain-Thunderstorm,205
2013-2-26,55,48,39,36,33,31,79,61,45,29.93,29.74,29.56,10,10,10,21,14,29,0.00,5,,275
2013-2-27,59,46,33,36,32,24,100,70,28,30.12,30.00,29.92,10,7,0,16,4,25,0.00,0,Fog,318
2013-2-28,55,46,36,29,26,23,70,49,29,30.24,30.17,30.12,10,10,8,13,8,22,0.00,0,,319